TimeEDT,TemperatureF,Dew PointF,Humidity,Sea Level PressureIn,VisibilityMPH,Wind Direction,Wind SpeedMPH,Gust SpeedMPH,PrecipitationIn,Events,Conditions,WindDirDegrees,DateUTC
12:54 AM,68.0,64.9,90,29.91,10.0,SSW,5.8,-,N/A,,Clear,210,2013-05-22 04:54:00
1:54 AM,68.0,64.9,90,29.92,10.0,SSW,6.9,-,N/A,,Partly Cloudy,210,2013-05-22 05:54:00
2:54 AM,68.0,64.9,90,29.90,10.0,SSW,8.1,-,N/A,,Clear,200,2013-05-22 06:54:00
3:54 AM,68.0,64.9,90,29.89,9.0,SSW,6.9,-,N/A,,Clear,210,2013-05-22 07:54:00
4:54 AM,69.1,66.0,90,29.89,8.0,SSW,5.8,-,N/A,,Clear,210,2013-05-22 08:54:00
5:03 AM,69.1,66.0,90,29.89,8.0,SSW,6.9,-,N/A,,Partly Cloudy,210,2013-05-22 09:03:00
5:37 AM,66.9,66.0,97,29.89,2.0,SSE,5.8,-,N/A,,Mostly Cloudy,160,2013-05-22 09:37:00
5:54 AM,66.9,64.9,93,29.90,2.0,South,4.6,-,N/A,,Overcast,180,2013-05-22 09:54:00
6:54 AM,68.0,64.9,90,29.93,2.0,SSW,5.8,-,N/A,,Overcast,210,2013-05-22 10:54:00
7:54 AM,70.0,66.0,87,29.93,2.0,South,5.8,-,N/A,,Overcast,190,2013-05-22 11:54:00
8:54 AM,70.0,66.0,87,29.94,2.0,SW,5.8,-,N/A,,Overcast,220,2013-05-22 12:54:00
9:06 AM,71.1,66.9,87,29.94,10.0,SSW,5.8,-,N/A,,Overcast,200,2013-05-22 13:06:00
9:54 AM,73.0,68.0,84,29.94,10.0,SW,8.1,-,N/A,,Overcast,230,2013-05-22 13:54:00
10:10 AM,73.9,66.9,79,29.93,10.0,WSW,11.5,-,N/A,,Overcast,240,2013-05-22 14:10:00
10:54 AM,75.0,66.9,76,29.95,10.0,West,10.4,-,N/A,,Overcast,260,2013-05-22 14:54:00
11:50 AM,75.2,68.0,78,29.95,10.0,SW,6.9,-,N/A,,Overcast,230,2013-05-22 15:50:00
11:54 AM,75.9,68.0,76,29.95,10.0,SW,6.9,-,N/A,,Overcast,230,2013-05-22 15:54:00
12:54 PM,79.0,68.0,69,29.93,9.0,WSW,10.4,-,N/A,,Mostly Cloudy,240,2013-05-22 16:54:00
1:54 PM,79.0,68.0,69,29.92,8.0,SSW,12.7,-,N/A,,Overcast,210,2013-05-22 17:54:00
2:54 PM,80.1,68.0,67,29.91,7.0,SSW,13.8,21.9,N/A,,Mostly Cloudy,210,2013-05-22 18:54:00
3:06 PM,81.0,69.1,67,29.91,7.0,SSW,13.8,-,N/A,,Scattered Clouds,210,2013-05-22 19:06:00
3:54 PM,81.0,68.0,65,29.90,6.0,SSW,12.7,-,N/A,,Haze,200,2013-05-22 19:54:00
4:54 PM,80.1,68.0,67,29.88,8.0,South,11.5,-,N/A,,Clear,180,2013-05-22 20:54:00
5:54 PM,78.1,66.0,66,29.89,9.0,South,9.2,-,N/A,,Clear,190,2013-05-22 21:54:00
6:54 PM,75.9,64.9,69,29.89,10.0,South,11.5,21.9,N/A,,Clear,180,2013-05-22 22:54:00
7:54 PM,71.1,63.0,75,29.90,10.0,South,13.8,-,N/A,,Clear,190,2013-05-22 23:54:00
8:54 PM,69.1,63.0,81,29.91,10.0,South,9.2,-,N/A,,Clear,190,2013-05-23 00:54:00
9:54 PM,68.0,63.0,84,29.93,10.0,South,9.2,-,N/A,,Clear,180,2013-05-23 01:54:00
10:54 PM,66.9,63.0,87,29.94,10.0,South,8.1,-,N/A,,Clear,190,2013-05-23 02:54:00
11:54 PM,66.9,63.0,87,29.94,10.0,South,10.4,-,N/A,,Clear,180,2013-05-23 03:54:00